Location: Casteau
(50.5142°N, 4.0161°E)
Time: 08:19:15
(UTC+00:00)

Resurs 01 Rocket - Pass Details

Date: 18 September 2020
Orbit: 633 x 645 km, 98.0° (Epoch: 24 October)

Event Time Altitude Azimuth Distance (km) Brightness Sun altitude
Exits shadow 20:56:50 33° 247° (WSW) 1,088 2.9 -27.8°
Maximum altitude 20:57:24 34° 264° (W) 1,060 3.0 -27.8°
Drops below altitude 10° 21:01:30 10° 330° (NNW) 2,053 5.1 -28.3°
Sets 21:03:54 0° 339° (NNW) 2,967 6.0 -28.6°
